Location: Sobotiste
(48.7170°N, 17.4000°E)
Time: 21:27:06
(UTC+02:00)

ISS - Visible Passes

Search period start: 20 May 2018 00:00
Search period end: 30 May 2018 00:00
Orbit: 402 x 407 km, 51.6° (Epoch: 21 May)

Date Brightness Start Highest point End Pass type
(mag) Time Alt. Az. Time Alt. Az. Time Alt. Az.
20 May -2.8 00:06:23 39° ENE 00:06:23 39° ENE 00:08:34 10° ENE visible
20 May -2.9 01:38:55 11° WNW 01:42:01 48° N 01:45:12 10° ENE visible
20 May -3.9 03:15:26 10° WNW 03:18:42 88° NNE 03:21:59 10° ESE visible
20 May -2.2 21:35:07 10° S 21:37:06 15° SE 21:39:06 10° E visible
20 May -4.0 23:09:53 10° WSW 23:13:08 73° SSE 23:16:24 10° ENE visible
21 May -2.9 00:46:33 10° W 00:49:46 49° N 00:52:57 10° ENE visible
21 May -3.5 02:23:15 10° WNW 02:26:31 66° NNE 02:29:46 10° E visible
21 May -3.2 03:59:53 10° W 04:02:53 33° SW 04:05:51 10° SSE visible
21 May -3.6 22:17:52 10° SW 22:21:01 46° SSE 22:24:11 10° ENE visible
21 May -3.2 23:54:16 10° W 23:57:30 56° N 00:00:44 10° ENE visible
22 May -3.1 01:31:03 10° WNW 01:34:16 53° N 01:37:29 10° E visible
22 May -3.8 03:07:36 10° WNW 03:10:48 53° SSW 03:13:59 10° SE visible
22 May -3.0 21:26:03 10° SSW 21:28:57 29° SE 21:31:50 10° E visible
22 May -3.6 23:01:59 10° WSW 23:05:15 71° NNW 23:08:31 10° ENE visible
23 May -2.9 00:38:48 10° WNW 00:41:59 48° N 00:45:11 10° E visible
23 May -4.0 02:15:22 10° WNW 02:18:39 82° SSW 02:21:54 10° ESE visible
23 May -2.3 03:52:28 10° W 03:54:44 18° SW 03:57:01 10° S visible
23 May -3.9 22:09:46 10° WSW 22:13:02 83° SSE 22:16:19 10° ENE visible
23 May -2.9 23:46:30 10° W 23:49:41 48° N 23:52:53 10° ENE visible
24 May -3.7 01:23:09 10° WNW 01:26:26 73° NNE 01:27:54 30° E visible
24 May -1.5 02:59:51 10° W 03:07:32 - SE 03:00:17 13° W visible
24 May -3.7 21:17:39 10° SW 21:20:51 55° SSE 21:24:04 10° ENE visible
24 May -3.0 22:54:10 10° W 22:57:24 53° N 23:00:37 10° ENE visible
25 May -3.2 00:30:55 10° WNW 00:34:10 57° NNE 00:35:40 27° E visible
25 May -1.6 02:07:29 10° WNW 02:08:15 16° W 02:08:15 16° W visible
25 May -3.4 22:01:51 10° W 22:05:06 65° NNW 22:08:22 10° ENE visible
25 May -2.9 23:38:39 10° WNW 23:41:51 49° N 23:44:34 13° E visible
26 May -2.6 01:15:12 10° WNW 01:17:09 33° W 01:17:09 33° W visible
26 May -2.8 22:46:20 10° WNW 22:49:31 48° N 22:52:42 10° ENE visible
27 May -3.9 00:22:57 10° WNW 00:26:13 81° NNE 00:26:18 79° NE visible
27 May -2.9 21:53:58 10° W 21:57:10 51° N 22:00:23 10° ENE visible
27 May -3.4 23:30:40 10° WNW 23:33:56 61° NNE 23:35:33 26° E visible
28 May -1.6 01:07:16 10° WNW 01:08:10 17° W 01:08:10 17° W visible
28 May -3.0 22:38:22 10° WNW 22:41:35 51° N 22:44:47 10° E visible
29 May -3.3 00:14:55 10° WNW 00:17:28 47° W 00:17:28 47° W visible
29 May -2.8 21:46:01 10° WNW 21:49:13 48° N 21:52:25 10° ENE visible
29 May -3.9 23:22:36 10° WNW 23:25:53 90° W 23:26:49 44° ESE visible
